Wind_Speed
37 41 43 43 41 38 35 33 30 28 25 20 18 16 13 11 8 5 4 4 3 2 2 3 5 8 10 11 12 13 15 16 17 19 20 22 24 26 29 31 32 32 35 29
34 39 40 40 40 38 34 33 29 26 22 18 16 14 14 13 10 8 7 5 4 2 1 3 5 7 10 13 14 16 17 18 21 23 24 25 27 29 30 33 35 35 35 32
33 34 37 39 37 36 33 28 24 22 21 19 16 14 14 12 11 9 6 5 3 1 2 4 7 10 12 13 15 18 21 24 25 27 31 30 32 35 37 39 40 41 33 36
33 33 33 33 32 31 27 25 23 23 21 20 18 15 13 11 10 9 8 5 3 2 3 7 10 13 17 20 24 27 31 32 33 35 36 35 32 34 37 39 39 40 36 36
33 34 33 31 29 27 25 23 22 21 20 19 18 16 14 13 12 10 8 6 6 6 8 11 14 17 19 22 26 33 38 41 43 41 41 38 28 31 34 37 37 37 40 40
34 34 32 30 28 25 21 21 21 21 19 19 19 19 16 14 12 12 11 10 10 11 14 17 19 21 23 24 30 37 42 45 47 43 41 37 29 30 35 36 35 39 42 43
35 35 33 30 27 25 23 21 20 21 21 22 21 19 17 16 15 15 14 15 15 17 19 21 23 25 27 29 34 39 44 47 47 46 43 38 26 33 36 36 35 38 40 41
36 36 34 32 29 27 25 23 21 21 22 22 21 20 18 16 16 16 17 19 20 22 25 25 26 28 30 33 37 42 47 47 46 45 46 42 26 30 32 35 35 38 39 41
37 37 34 33 31 29 27 27 25 23 21 20 19 18 18 18 18 19 20 22 23 26 27 28 29 30 34 36 41 45 44 42 40 42 43 40 32 36 38 40 40 45 44 49
37 36 35 34 33 32 30 29 28 26 25 24 23 23 23 22 22 23 25 27 28 30 31 31 33 35 38 40 44 42 40 41 37 37 38 33 34 37 40 44 48 51 54 58
38 36 36 36 35 35 33 33 32 31 30 29 30 30 29 29 29 30 30 32 33 34 35 36 38 40 42 47 47 43 39 41 35 36 34 35 38 41 45 47 50 53 57 60
41 39 37 36 36 36 36 36 36 35 34 34 35 35 34 34 34 34 35 35 36 37 38 40 43 45 48 53 54 43 37 35 37 40 36 40 42 45 48 50 55 57 61 65
44 41 40 38 37 37 38 38 38 37 37 37 37 37 37 37 37 38 37 38 38 39 41 41 45 49 55 55 51 46 36 33 39 43 39 44 47 50 52 55 60 62 66 71
45 42 42 42 40 39 37 38 38 38 38 39 39 39 39 39 39 38 38 37 38 40 42 46 52 56 57 53 46 45 40 40 42 43 44 48 48 53 57 60 61 66 71 75
44 43 41 42 42 41 40 40 40 40 41 41 39 40 39 39 39 39 38 39 42 43 47 52 57 58 55 51 47 46 44 42 45 49 51 52 55 58 62 67 71 75 76 75
42 43 42 42 42 42 42 41 42 42 42 42 41 41 41 42 40 40 40 41 43 47 52 58 59 56 55 53 52 48 45 47 52 54 56 58 61 64 68 72 75 75 76 77
45 44 44 44 45 46 45 44 43 44 44 43 44 44 40 40 42 42 43 44 48 54 58 56 53 51 53 53 53 49 51 53 56 58 60 63 66 70 73 74 74 74 76 78
46 47 46 44 44 45 44 44 45 44 45 45 47 43 43 40 41 43 45 50 54 55 49 47 49 53 54 55 54 55 56 58 59 60 64 68 71 72 73 72 73 75 75 76
51 50 50 48 46 45 45 45 45 45 44 46 46 44 45 46 49 52 53 54 53 47 48 50 52 54 57 58 60 62 62 61 62 65 68 69 70 69 70 74 75 75 74 74
51 49 50 49 48 44 53 48 46 48 46 53 53 53 55 54 50 50 52 53 52 53 55 57 57 58 59 60 58 58 60 62 65 68 67 66 66 70 72 74 73 74 74 73
47 51 49 44 43 41 45 53 52 55 59 59 59 52 47 48 50 50 52 53 55 58 60 60 61 60 57 56 58 61 63 63 64 65 65 69 72 72 72 73 73 73 71 71
49 50 49 45 47 44 46 47 48 55 57 54 52 52 52 52 50 50 50 53 56 58 58 60 61 59 60 61 62 64 64 64 65 68 70 71 72 73 73 73 72 71 71 70
55 54 54 55 54 56 53 49 50 50 52 50 49 49 49 49 51 53 56 58 58 59 59 58 56 57 60 62 63 63 63 66 68 69 71 72 72 71 71 69 69 71 68 65
51 56 54 53 55 55 52 53 55 54 54 55 55 55 54 54 56 57 57 58 57 58 56 54 55 58 60 62 61 62 63 66 68 69 70 70 71 69 67 68 68 66 62 61
56 60 61 61 59 56 54 55 55 57 59 60 59 59 57 54 55 55 54 54 54 54 53 56 58 59 59 58 60 63 65 67 67 67 67 64 64 65 63 62 61 60 60 61
57 65 62 60 61 62 63 63 63 61 59 59 59 56 53 50 49 49 50 51 51 53 55 57 59 59 59 61 63 65 65 66 66 63 61 62 63 62 59 57 58 59 59 55
47 43 43 45 46 49 50 52 52 50 48 47 46 45 46 48 49 50 50 51 53 56 59 61 60 60 61 62 64 64 65 62 59 58 59 60 58 56 56 57 57 55 51 49
Wind_Direction
201 201 200 203 207 210 214 220 225 232 240 243 241 235 234 220 219 224 237 228 254 276 277 296 298 299 305 312 317 318 315 316 312 312 311 310 309 304 302 301 300 301 304 319
204 203 205 205 209 212 218 223 229 234 235 225 225 229 215 209 211 225 238 231 231 252 319 337 346 343 335 331 326 323 322 318 316 314 314 310 308 303 301 297 297 301 304 308
205 206 207 208 209 214 218 221 222 224 225 221 216 214 216 213 217 226 227 229 227 164 68 2 346 340 339 336 333 333 332 329 323 321 318 314 311 305 303 301 301 296 307 300
205 204 205 206 208 210 211 210 213 217 215 213 211 211 211 206 215 224 227 222 209 218 302 325 334 335 339 340 338 335 332 327 324 323 318 313 314 305 294 298 298 300 298 302
204 202 202 202 200 200 202 207 209 211 212 210 207 203 201 204 214 224 226 236 240 251 275 298 311 317 325 326 330 331 328 323 321 322 317 320 319 304 294 290 296 297 299 304
205 203 200 198 197 197 199 203 207 207 205 203 202 201 203 207 215 220 233 246 254 262 277 289 302 310 313 319 324 325 324 320 319 320 314 317 323 305 291 291 298 300 303 305
208 207 205 203 201 199 199 202 202 202 200 200 202 205 210 215 219 229 242 254 266 274 281 288 294 301 308 312 321 323 323 320 319 320 317 316 323 293 295 297 301 300 302 304
212 211 210 209 210 209 205 205 205 204 204 201 206 210 217 226 233 240 252 262 268 274 278 284 294 300 306 309 313 318 317 317 317 317 316 319 325 304 303 302 305 303 305 307
215 215 213 213 214 217 214 212 212 212 212 213 218 223 228 235 242 249 256 263 269 275 282 289 293 298 306 312 314 317 318 314 314 313 313 323 322 318 315 313 311 312 315 312
216 218 218 218 218 219 220 220 220 221 222 221 225 231 236 242 248 253 261 267 274 280 285 291 293 299 306 311 317 320 316 308 309 306 312 319 314 314 314 314 316 318 317 316
216 218 219 221 222 223 224 226 227 228 230 231 234 238 242 247 253 258 264 270 274 280 285 287 289 298 306 311 313 316 314 305 303 306 312 314 312 312 313 314 314 314 313 314
216 218 220 222 224 225 227 230 232 235 237 238 240 243 247 252 256 261 266 271 275 282 283 285 291 300 307 309 311 312 312 299 295 301 312 310 309 312 312 312 311 314 314 314
217 219 222 224 226 228 231 233 235 237 240 243 246 249 252 256 260 265 269 274 279 281 284 288 295 305 307 309 309 309 310 298 296 298 306 303 308 310 312 312 313 315 312 312
221 221 225 228 229 230 232 235 238 239 242 245 246 249 251 255 260 265 271 275 277 281 283 288 299 304 306 306 305 306 305 298 297 300 304 305 305 306 309 312 312 309 309 310
224 224 227 231 233 234 234 236 238 240 242 244 245 249 254 259 263 266 270 275 277 280 284 291 299 302 304 302 303 308 302 296 297 303 305 307 306 307 309 311 312 310 310 311
227 228 229 232 235 235 236 238 239 241 243 246 247 251 254 258 261 265 270 273 278 284 289 293 295 299 300 300 302 305 302 299 298 302 304 304 305 307 309 309 308 309 311 310
230 230 232 234 235 236 237 239 240 242 245 247 249 252 255 261 267 272 272 274 283 290 291 293 293 294 294 296 300 303 301 300 300 302 302 303 303 305 306 306 308 309 308 309
232 233 232 234 237 239 240 242 243 246 249 251 254 257 261 262 263 266 269 279 287 289 288 288 291 290 294 297 300 300 299 298 298 300 301 302 304 305 305 306 307 307 309 309
232 232 239 239 242 243 243 247 249 247 249 253 256 260 265 269 273 269 272 280 282 280 282 286 287 290 293 296 298 299 298 297 298 299 300 301 302 304 306 306 307 308 309 309
231 230 240 242 244 251 242 248 249 252 256 258 261 264 270 272 276 279 277 278 281 282 283 285 288 292 295 295 295 295 294 295 296 298 300 302 303 304 305 306 308 309 311 312
232 236 235 239 242 248 246 245 252 254 257 261 267 266 266 271 278 280 279 282 284 285 286 289 291 293 294 295 295 295 296 298 300 302 303 303 304 306 306 307 309 311 312 314
233 233 236 239 240 243 246 252 251 254 260 261 262 271 271 271 273 277 277 278 279 282 285 287 291 294 296 297 298 299 300 301 301 301 302 305 306 307 309 311 311 312 313 313
224 227 234 239 236 243 248 253 254 257 263 264 265 267 269 271 273 273 273 275 279 282 284 290 293 296 297 297 297 299 299 299 300 302 304 305 307 309 310 311 311 311 312 313
233 236 238 239 238 241 247 249 252 256 259 261 264 263 264 269 269 271 274 276 281 285 290 293 294 294 295 296 298 298 299 301 303 304 305 307 309 310 310 310 310 311 313 314
225 224 225 228 235 242 246 246 252 259 263 265 264 264 266 268 269 273 278 283 285 288 289 289 291 293 295 297 298 298 299 301 302 305 307 308 307 309 310 310 311 312 313 316
228 231 237 239 242 244 248 252 255 257 259 261 263 265 267 268 272 278 282 282 284 285 287 290 292 295 297 296 296 298 300 302 305 307 307 308 309 310 311 312 312 314 316 315
239 239 241 244 247 245 246 248 251 254 256 258 261 265 270 276 279 281 282 283 284 287 290 292 296 296 295 295 297 299 302 306 306 307 309 310 310 312 312 313 315 317 315 314
Height
5728 5734 5739 5745 5751 5756 5761 5765 5770 5773 5776 5780 5781 5784 5787 5789 5790 5791 5792 5792 5793 5794 5794 5794 5795 5795 5795 5795 5794 5794 5793 5791 5789 5788 5786 5784 5781 5778 5775 5772 5770 5768 5763 5766
5725 5730 5737 5742 5747 5753 5758 5762 5766 5769 5772 5775 5779 5782 5784 5786 5788 5789 5790 5791 5791 5792 5793 5794 5794 5793 5793 5792 5792 5791 5790 5789 5787 5784 5784 5780 5776 5772 5768 5764 5761 5759 5756 5755
5722 5727 5733 5739 5744 5749 5754 5759 5762 5765 5769 5772 5776 5779 5782 5784 5785 5786 5788 5788 5790 5791 5792 5792 5792 5791 5790 5790 5789 5788 5786 5784 5783 5781 5777 5774 5771 5765 5759 5755 5752 5746 5750 5741
5719 5725 5730 5735 5741 5746 5751 5754 5758 5761 5765 5769 5772 5776 5779 5780 5782 5784 5785 5787 5788 5789 5789 5789 5788 5787 5787 5786 5784 5783 5781 5779 5777 5774 5770 5767 5765 5758 5751 5747 5743 5739 5739 5736
5717 5722 5727 5733 5737 5742 5747 5751 5755 5758 5762 5766 5769 5772 5775 5777 5779 5781 5783 5785 5786 5786 5786 5786 5785 5784 5783 5782 5780 5777 5774 5770 5767 5767 5759 5758 5758 5750 5744 5738 5737 5734 5729 5728
5713 5720 5724 5729 5734 5740 5743 5747 5751 5755 5759 5762 5765 5768 5771 5773 5776 5778 5779 5781 5782 5782 5783 5782 5780 5779 5778 5777 5775 5772 5767 5761 5757 5756 5751 5749 5749 5741 5734 5732 5731 5726 5723 5720
5709 5716 5721 5726 5731 5735 5740 5745 5749 5752 5755 5758 5762 5764 5767 5769 5772 5774 5775 5776 5777 5778 5777 5776 5775 5774 5773 5771 5769 5764 5759 5753 5748 5742 5739 5739 5742 5729 5726 5724 5724 5719 5716 5711
5705 5711 5717 5722 5727 5731 5737 5741 5746 5749 5752 5755 5758 5761 5763 5765 5767 5770 5771 5771 5771 5771 5771 5771 5770 5769 5769 5767 5764 5758 5751 5745 5738 5733 5726 5727 5732 5724 5721 5716 5716 5711 5707 5702
5700 5706 5712 5717 5722 5727 5732 5737 5741 5745 5749 5752 5755 5757 5759 5761 5762 5764 5765 5765 5765 5765 5765 5765 5764 5762 5760 5758 5755 5751 5744 5738 5733 5725 5720 5718 5717 5711 5709 5705 5703 5698 5694 5688
5694 5700 5706 5711 5717 5722 5727 5732 5736 5740 5743 5746 5749 5752 5754 5756 5757 5758 5758 5758 5758 5758 5757 5756 5755 5754 5752 5750 5746 5741 5736 5729 5726 5718 5714 5714 5709 5705 5700 5696 5693 5685 5679 5673
5687 5694 5700 5706 5711 5716 5721 5726 5730 5734 5736 5739 5742 5744 5747 5748 5749 5750 5751 5751 5750 5749 5749 5747 5745 5744 5742 5740 5737 5733 5730 5720 5717 5711 5710 5707 5702 5697 5693 5689 5681 5675 5669 5663
5680 5687 5693 5699 5704 5709 5714 5719 5722 5726 5729 5732 5734 5736 5738 5739 5740 5742 5742 5742 5741 5740 5739 5737 5735 5734 5732 5728 5724 5723 5721 5715 5708 5704 5704 5697 5691 5687 5682 5677 5670 5664 5657 5650
5673 5679 5685 5691 5697 5701 5706 5710 5714 5717 5720 5723 5726 5727 5729 5731 5732 5733 5733 5732 5732 5731 5729 5727 5726 5724 5721 5718 5713 5710 5710 5705 5699 5694 5695 5687 5681 5675 5669 5664 5658 5651 5644 5634
5666 5672 5678 5683 5688 5692 5697 5701 5705 5708 5711 5713 5717 5718 5720 5721 5722 5723 5723 5723 5722 5721 5719 5716 5715 5713 5711 5705 5702 5700 5700 5694 5689 5686 5682 5675 5670 5664 5659 5654 5646 5638 5630 5619
5659 5664 5669 5675 5679 5683 5687 5691 5695 5698 5702 5705 5707 5708 5711 5712 5712 5713 5713 5712 5711 5710 5709 5707 5704 5702 5699 5693 5689 5690 5685 5681 5677 5672 5667 5663 5658 5652 5646 5638 5631 5621 5613 5604
5651 5656 5661 5666 5671 5675 5679 5683 5686 5689 5691 5694 5698 5700 5700 5701 5702 5702 5702 5701 5701 5700 5698 5696 5693 5690 5686 5680 5677 5678 5672 5668 5663 5660 5655 5649 5643 5637 5631 5623 5614 5605 5595 5584
5643 5647 5652 5657 5661 5665 5669 5674 5677 5678 5680 5683 5686 5689 5694 5693 5692 5692 5692 5691 5690 5689 5686 5683 5681 5679 5674 5671 5667 5666 5661 5656 5651 5646 5641 5637 5630 5624 5617 5607 5599 5589 5578 5569
5634 5639 5643 5647 5651 5656 5661 5663 5666 5669 5671 5673 5674 5680 5683 5685 5684 5683 5681 5680 5679 5677 5674 5672 5670 5666 5663 5660 5658 5654 5649 5644 5639 5634 5628 5621 5615 5607 5598 5590 5582 5575 5565 5554
5624 5629 5633 5637 5642 5647 5653 5653 5655 5657 5661 5661 5665 5669 5670 5671 5672 5671 5671 5669 5666 5664 5663 5662 5659 5656 5652 5648 5644 5640 5635 5629 5625 5620 5614 5608 5600 5591 5581 5572 5564 5555 5548 5538
5615 5619 5623 5627 5634 5638 5641 5642 5643 5644 5648 5649 5654 5658 5657 5659 5658 5656 5655 5653 5652 5651 5651 5648 5647 5644 5639 5635 5631 5627 5621 5615 5609 5604 5598 5591 5583 5574 5567 5558 5547 5536 5527 5518
5605 5607 5612 5618 5622 5625 5627 5630 5633 5635 5637 5641 5642 5643 5645 5647 5645 5643 5640 5636 5633 5634 5635 5633 5632 5631 5624 5621 5617 5611 5606 5599 5593 5586 5579 5571 5564 5557 5549 5540 5530 5521 5511 5501
5594 5598 5603 5606 5609 5612 5614 5616 5619 5622 5625 5628 5631 5632 5632 5632 5631 5628 5627 5624 5621 5621 5622 5618 5616 5615 5609 5605 5599 5594 5589 5583 5576 5568 5561 5554 5546 5538 5530 5521 5512 5504 5496 5488
5585 5586 5590 5594 5594 5597 5602 5606 5609 5613 5614 5616 5617 5618 5618 5618 5617 5614 5613 5610 5609 5607 5605 5603 5601 5598 5594 5589 5585 5581 5574 5567 5559 5554 5546 5539 5532 5523 5513 5504 5495 5488 5482 5473
5570 5573 5577 5581 5583 5588 5594 5596 5597 5600 5601 5601 5602 5604 5604 5604 5601 5599 5598 5595 5593 5589 5590 5588 5586 5583 5578 5574 5570 5564 5556 5550 5545 5539 5532 5524 5515 5508 5500 5490 5481 5473 5467 5459
5558 5562 5563 5572 5575 5578 5581 5582 5584 5586 5587 5588 5588 5589 5589 5587 5584 5584 5582 5579 5575 5574 5574 5573 5571 5568 5563 5558 5552 5546 5541 5535 5529 5521 5514 5508 5499 5493 5488 5477 5468 5459 5452 5444
5544 5550 5556 5560 5563 5563 5565 5567 5570 5572 5573 5574 5574 5575 5573 5572 5570 5570 5567 5564 5563 5559 5558 5556 5554 5551 5547 5541 5536 5532 5526 5520 5514 5507 5499 5492 5484 5477 5471 5464 5454 5447 5437 5429
5534 5542 5544 5546 5547 5549 5551 5553 5556 5557 5558 5560 5559 5560 5559 5558 5556 5555 5552 5549 5547 5546 5544 5541 5538 5534 5530 5525 5521 5516 5510 5504 5497 5491 5485 5477 5469 5462 5455 5449 5443 5434 5425 5417